TimePST,TemperatureF,Dew PointF,Humidity,Sea Level PressureIn,VisibilityMPH,Wind Direction,Wind SpeedMPH,Gust SpeedMPH,PrecipitationIn,Events,Conditions,WindDirDegrees,DateUTC
12:53 AM,55.9,51.1,84,30.11,5.0,Calm,Calm,-,0.01,,Haze,0,2012-11-23 08:53:00
1:05 AM,55.4,51.8,88,30.11,4.0,Calm,Calm,-,N/A,,Overcast,0,2012-11-23 09:05:00
1:18 AM,57.2,51.8,82,30.11,1.8,Calm,Calm,-,N/A,,Haze,0,2012-11-23 09:18:00
1:38 AM,57.2,53.6,88,30.11,3.0,Calm,Calm,-,N/A,,Overcast,0,2012-11-23 09:38:00
1:42 AM,57.2,51.8,82,30.11,1.5,Calm,Calm,-,N/A,,Haze,0,2012-11-23 09:42:00
1:51 AM,57.2,53.6,88,30.11,0.5,Calm,Calm,-,N/A,Fog,Fog,0,2012-11-23 09:51:00
1:53 AM,57.0,53.1,87,30.11,0.8,Calm,Calm,-,N/A,,Overcast,0,2012-11-23 09:53:00
2:00 AM,55.4,51.8,88,30.11,2.0,Calm,Calm,-,N/A,,Overcast,0,2012-11-23 10:00:00
2:08 AM,55.4,51.8,88,30.11,5.0,Calm,Calm,-,N/A,,Overcast,0,2012-11-23 10:08:00
2:19 AM,55.4,51.8,88,30.11,2.0,Calm,Calm,-,N/A,,Haze,0,2012-11-23 10:19:00
2:26 AM,55.4,51.8,88,30.11,1.0,Calm,Calm,-,N/A,,Overcast,0,2012-11-23 10:26:00
2:37 AM,55.4,51.8,88,30.11,0.8,Calm,Calm,-,N/A,,Overcast,0,2012-11-23 10:37:00
2:53 AM,55.9,52.0,87,30.11,0.2,Calm,Calm,-,N/A,Fog,Fog,0,2012-11-23 10:53:00
3:53 AM,55.9,53.1,90,30.11,0.2,Calm,Calm,-,N/A,Fog,Fog,0,2012-11-23 11:53:00
5:53 AM,55.0,52.0,89,30.12,0.2,Calm,Calm,-,N/A,Fog,Fog,0,2012-11-23 13:53:00
6:53 AM,54.0,52.0,93,30.14,0.2,Calm,Calm,-,N/A,Fog,Fog,0,2012-11-23 14:53:00
7:53 AM,54.0,52.0,93,30.15,0.2,Calm,Calm,-,N/A,Fog,Fog,0,2012-11-23 15:53:00
8:53 AM,55.0,53.1,93,30.15,0.2,NW,3.5,27.6,N/A,Fog,Fog,310,2012-11-23 16:53:00
9:44 AM,57.2,53.6,88,30.16,1.0,Calm,Calm,-,N/A,,Overcast,0,2012-11-23 17:44:00
9:53 AM,57.9,54.0,87,30.15,1.5,Calm,Calm,-,N/A,,Overcast,0,2012-11-23 17:53:00
10:04 AM,59.0,53.6,82,30.15,2.0,WNW,3.5,-,N/A,,Haze,290,2012-11-23 18:04:00
10:12 AM,60.8,53.6,77,30.15,3.0,Calm,Calm,-,N/A,,Haze,0,2012-11-23 18:12:00
10:53 AM,68.0,55.0,63,30.13,4.0,West,3.5,-,N/A,,Haze,260,2012-11-23 18:53:00
11:53 AM,75.0,54.0,48,30.10,4.0,SW,4.6,-,N/A,,Haze,230,2012-11-23 19:53:00
12:53 PM,80.1,53.1,39,30.08,4.0,Variable,3.5,-,N/A,,Haze,0,2012-11-23 20:53:00
1:53 PM,77.0,55.0,47,30.06,4.0,SSW,5.8,-,N/A,,Haze,200,2012-11-23 21:53:00
2:53 PM,73.0,55.9,55,30.05,5.0,SSW,4.6,-,N/A,,Haze,200,2012-11-23 22:53:00
3:53 PM,71.1,55.9,59,30.05,5.0,SSW,3.5,-,N/A,,Haze,200,2012-11-23 23:53:00
4:53 PM,69.1,55.9,63,30.05,5.0,Calm,Calm,-,N/A,,Haze,0,2012-11-24 00:53:00
5:53 PM,66.0,55.0,68,30.06,6.0,Calm,Calm,-,N/A,,Haze,0,2012-11-24 01:53:00
6:53 PM,64.0,55.0,73,30.07,5.0,Calm,Calm,-,N/A,,Haze,0,2012-11-24 02:53:00
7:53 PM,62.1,55.0,78,30.08,5.0,Calm,Calm,-,N/A,,Haze,0,2012-11-24 03:53:00
8:53 PM,57.9,53.1,84,30.09,5.0,Calm,Calm,-,N/A,,Haze,0,2012-11-24 04:53:00
9:53 PM,57.9,52.0,81,30.10,5.0,Calm,Calm,-,N/A,,Haze,0,2012-11-24 05:53:00
10:36 PM,57.2,51.8,82,30.10,4.0,Calm,Calm,-,N/A,,Haze,0,2012-11-24 06:36:00
10:53 PM,57.0,52.0,83,30.10,3.0,Calm,Calm,-,N/A,,Haze,0,2012-11-24 06:53:00
11:12 PM,57.2,53.6,88,30.10,1.8,Calm,Calm,-,N/A,,Overcast,0,2012-11-24 07:12:00
11:22 PM,57.2,55.4,94,30.10,0.5,Calm,Calm,-,N/A,Fog,Fog,0,2012-11-24 07:22:00
11:53 PM,57.0,54.0,89,30.09,0.2,Calm,Calm,-,N/A,Fog,Fog,0,2012-11-24 07:53:00